Time,TemperatureF,DewpointF,PressureIn,WindDirection,WindDirectionDegrees,WindSpeedMPH,WindSpeedGustMPH,Humidity,HourlyPrecipIn,Conditions,Clouds,dailyrainin,SoftwareType,DateUTC
2013-08-07 00:01:00,60.8,52.2,29.66,North,0,0.0,0.0,73,0.00,,,0.00,WUHU216HW,2013-08-07 07:01:00,
2013-08-07 00:06:00,60.7,52.0,29.66,North,0,0.0,0.0,73,0.00,,,0.00,WUHU216HW,2013-08-07 07:06:00,
2013-08-07 00:11:00,60.5,51.8,29.66,North,0,0.0,0.0,73,0.00,,,0.00,WUHU216HW,2013-08-07 07:11:00,
2013-08-07 00:16:00,60.5,51.8,29.66,North,0,0.0,0.0,73,0.00,,,0.00,WUHU216HW,2013-08-07 07:16:00,
2013-08-07 00:21:00,60.3,52.0,29.65,North,0,0.0,0.0,74,0.00,,,0.00,WUHU216HW,2013-08-07 07:21:00,
2013-08-07 00:26:00,60.1,51.8,29.65,North,0,0.0,0.0,74,0.00,,,0.00,WUHU216HW,2013-08-07 07:26:00,
2013-08-07 00:31:00,60.1,52.2,29.65,North,0,0.0,0.0,75,0.00,,,0.00,WUHU216HW,2013-08-07 07:31:00,
2013-08-07 00:36:00,59.8,52.2,29.65,North,0,0.0,0.0,76,0.00,,,0.00,WUHU216HW,2013-08-07 07:36:00,
2013-08-07 00:41:00,59.6,52.0,29.66,North,0,0.0,0.0,76,0.00,,,0.00,WUHU216HW,2013-08-07 07:41:00,
2013-08-07 00:46:00,59.4,52.2,29.66,North,0,0.0,0.0,77,0.00,,,0.00,WUHU216HW,2013-08-07 07:46:00,
2013-08-07 00:51:00,59.4,52.2,29.66,North,0,0.0,0.0,77,0.00,,,0.00,WUHU216HW,2013-08-07 07:51:00,
2013-08-07 00:56:00,59.4,51.8,29.66,North,0,0.0,0.0,76,0.00,,,0.00,WUHU216HW,2013-08-07 07:56:00,
2013-08-07 01:01:00,59.2,52.0,29.66,North,0,0.0,0.0,77,0.00,,,0.00,WUHU216HW,2013-08-07 08:01:00,
2013-08-07 01:06:00,59.0,52.2,29.66,North,0,0.0,0.0,78,0.00,,,0.00,WUHU216HW,2013-08-07 08:06:00,
2013-08-07 01:11:00,58.7,52.2,29.65,North,0,0.0,0.0,79,0.00,,,0.00,WUHU216HW,2013-08-07 08:11:00,
2013-08-07 01:16:00,58.7,52.2,29.65,North,0,0.0,0.0,79,0.00,,,0.00,WUHU216HW,2013-08-07 08:16:00,
2013-08-07 01:21:00,58.5,52.0,29.66,North,0,0.0,0.0,79,0.00,,,0.00,WUHU216HW,2013-08-07 08:21:00,
2013-08-07 01:26:00,58.3,51.8,29.66,North,0,0.0,0.0,79,0.00,,,0.00,WUHU216HW,2013-08-07 08:26:00,
2013-08-07 01:31:00,58.3,51.5,29.66,North,0,0.0,0.0,78,0.00,,,0.00,WUHU216HW,2013-08-07 08:31:00,
2013-08-07 01:36:00,58.3,51.8,29.66,North,0,0.0,0.0,79,0.00,,,0.00,WUHU216HW,2013-08-07 08:36:00,
2013-08-07 01:41:00,58.1,51.3,29.66,North,0,0.0,0.0,78,0.00,,,0.00,WUHU216HW,2013-08-07 08:41:00,
2013-08-07 01:46:00,58.0,51.5,29.66,North,0,0.0,0.0,79,0.00,,,0.00,WUHU216HW,2013-08-07 08:46:00,
2013-08-07 01:51:00,58.0,51.8,29.66,North,0,0.0,0.0,80,0.00,,,0.00,WUHU216HW,2013-08-07 08:51:00,
2013-08-07 01:56:00,57.8,51.7,29.66,North,0,0.0,0.0,80,0.00,,,0.00,WUHU216HW,2013-08-07 08:56:00,
2013-08-07 02:01:00,57.6,51.9,29.65,North,0,0.0,0.0,81,0.00,,,0.00,WUHU216HW,2013-08-07 09:01:00,
2013-08-07 02:06:00,57.4,52.3,29.66,North,0,0.0,0.0,83,0.00,,,0.00,WUHU216HW,2013-08-07 09:06:00,
2013-08-07 02:11:00,57.4,51.9,29.66,North,0,0.0,0.0,82,0.00,,,0.00,WUHU216HW,2013-08-07 09:11:00,
2013-08-07 02:16:00,57.2,52.1,29.66,North,0,0.0,0.0,83,0.00,,,0.00,WUHU216HW,2013-08-07 09:16:00,
2013-08-07 02:21:00,57.2,51.8,29.65,North,0,0.0,0.0,82,0.00,,,0.00,WUHU216HW,2013-08-07 09:21:00,
2013-08-07 02:26:00,57.2,51.8,29.65,North,0,0.0,0.0,82,0.00,,,0.00,WUHU216HW,2013-08-07 09:26:00,
2013-08-07 02:31:00,57.1,51.6,29.66,North,0,0.0,0.0,82,0.00,,,0.00,WUHU216HW,2013-08-07 09:31:00,
2013-08-07 02:36:00,57.1,51.9,29.65,North,0,0.0,0.0,83,0.00,,,0.00,WUHU216HW,2013-08-07 09:36:00,
2013-08-07 02:41:00,56.9,51.8,29.66,North,0,0.0,0.0,83,0.00,,,0.00,WUHU216HW,2013-08-07 09:41:00,
2013-08-07 02:46:00,56.9,51.4,29.66,North,0,0.0,0.0,82,0.00,,,0.00,WUHU216HW,2013-08-07 09:46:00,
2013-08-07 02:51:00,56.7,51.2,29.66,North,0,0.0,0.0,82,0.00,,,0.00,WUHU216HW,2013-08-07 09:51:00,
2013-08-07 02:56:00,56.5,51.0,29.66,North,0,0.0,0.0,82,0.00,,,0.00,WUHU216HW,2013-08-07 09:56:00,
2013-08-07 03:01:00,56.5,51.0,29.66,North,0,0.0,0.0,82,0.00,,,0.00,WUHU216HW,2013-08-07 10:01:00,
2013-08-07 03:06:00,56.5,51.0,29.66,North,0,0.0,0.0,82,0.00,,,0.00,WUHU216HW,2013-08-07 10:06:00,
2013-08-07 03:11:00,56.3,50.9,29.66,North,0,0.0,0.0,82,0.00,,,0.00,WUHU216HW,2013-08-07 10:11:00,
2013-08-07 03:16:00,56.2,50.4,29.66,North,0,0.0,0.0,81,0.00,,,0.00,WUHU216HW,2013-08-07 10:16:00,
2013-08-07 03:21:00,56.2,50.7,29.66,North,0,0.0,0.0,82,0.00,,,0.00,WUHU216HW,2013-08-07 10:21:00,
2013-08-07 03:26:00,56.2,50.7,29.66,North,0,0.0,0.0,82,0.00,,,0.00,WUHU216HW,2013-08-07 10:26:00,
2013-08-07 03:31:00,56.0,50.5,29.66,North,0,0.0,0.0,82,0.00,,,0.00,WUHU216HW,2013-08-07 10:31:00,
2013-08-07 03:36:00,56.0,50.5,29.66,North,0,0.0,0.0,82,0.00,,,0.00,WUHU216HW,2013-08-07 10:36:00,
2013-08-07 03:41:00,55.8,50.3,29.66,North,0,0.0,0.0,82,0.00,,,0.00,WUHU216HW,2013-08-07 10:41:00,
2013-08-07 03:46:00,55.8,50.3,29.66,North,0,0.0,0.0,82,0.00,,,0.00,WUHU216HW,2013-08-07 10:46:00,
2013-08-07 03:51:00,55.8,50.3,29.66,North,0,0.0,0.0,82,0.00,,,0.00,WUHU216HW,2013-08-07 10:51:00,
2013-08-07 03:56:00,55.8,50.3,29.66,North,0,0.0,0.0,82,0.00,,,0.00,WUHU216HW,2013-08-07 10:56:00,
2013-08-07 04:01:00,55.6,50.1,29.66,North,0,0.0,0.0,82,0.00,,,0.00,WUHU216HW,2013-08-07 11:01:00,
2013-08-07 04:06:00,55.4,50.3,29.66,North,0,0.0,0.0,83,0.00,,,0.00,WUHU216HW,2013-08-07 11:06:00,
2013-08-07 04:11:00,55.4,50.3,29.65,North,0,0.0,0.0,83,0.00,,,0.00,WUHU216HW,2013-08-07 11:11:00,
2013-08-07 04:16:00,55.3,49.8,29.66,North,0,0.0,0.0,82,0.00,,,0.00,WUHU216HW,2013-08-07 11:16:00,
2013-08-07 04:21:00,55.1,50.0,29.65,North,0,0.0,0.0,83,0.00,,,0.00,WUHU216HW,2013-08-07 11:21:00,
2013-08-07 04:26:00,55.1,50.0,29.65,North,0,0.0,0.0,83,0.00,,,0.00,WUHU216HW,2013-08-07 11:26:00,
2013-08-07 04:31:00,54.9,49.8,29.65,North,0,0.0,0.0,83,0.00,,,0.00,WUHU216HW,2013-08-07 11:31:00,
2013-08-07 04:36:00,54.7,49.6,29.65,North,0,0.0,0.0,83,0.00,,,0.00,WUHU216HW,2013-08-07 11:36:00,
2013-08-07 04:41:00,54.7,49.6,29.65,North,0,0.0,0.0,83,0.00,,,0.00,WUHU216HW,2013-08-07 11:41:00,
2013-08-07 04:46:00,54.7,49.6,29.65,North,0,0.0,0.0,83,0.00,,,0.00,WUHU216HW,2013-08-07 11:46:00,
2013-08-07 04:51:00,54.5,49.4,29.65,North,0,0.0,0.0,83,0.00,,,0.00,WUHU216HW,2013-08-07 11:51:00,
2013-08-07 04:56:00,54.5,49.4,29.65,North,0,0.0,0.0,83,0.00,,,0.00,WUHU216HW,2013-08-07 11:56:00,
2013-08-07 05:01:00,54.5,49.4,29.65,North,0,0.0,0.0,83,0.00,,,0.00,WUHU216HW,2013-08-07 12:01:00,
2013-08-07 05:06:00,54.4,49.3,29.66,North,0,0.0,0.0,83,0.00,,,0.00,WUHU216HW,2013-08-07 12:06:00,
2013-08-07 05:11:00,54.4,49.3,29.66,North,0,0.0,0.0,83,0.00,,,0.00,WUHU216HW,2013-08-07 12:11:00,
2013-08-07 05:16:00,54.4,49.3,29.66,North,0,0.0,0.0,83,0.00,,,0.00,WUHU216HW,2013-08-07 12:16:00,
2013-08-07 05:21:00,54.4,49.3,29.66,North,0,0.0,0.0,83,0.00,,,0.00,WUHU216HW,2013-08-07 12:21:00,
2013-08-07 05:26:00,54.4,49.3,29.66,North,0,0.0,0.0,83,0.00,,,0.00,WUHU216HW,2013-08-07 12:26:00,
2013-08-07 05:31:00,54.4,49.6,29.66,North,0,0.0,0.0,84,0.00,,,0.00,WUHU216HW,2013-08-07 12:31:00,
2013-08-07 05:36:00,54.4,49.6,29.66,North,0,0.0,0.0,84,0.00,,,0.00,WUHU216HW,2013-08-07 12:36:00,
2013-08-07 05:41:00,54.2,49.4,29.66,North,0,0.0,0.0,84,0.00,,,0.00,WUHU216HW,2013-08-07 12:41:00,
2013-08-07 05:46:00,54.2,49.4,29.66,North,0,0.0,0.0,84,0.00,,,0.00,WUHU216HW,2013-08-07 12:46:00,
2013-08-07 05:51:00,54.2,49.4,29.67,North,0,0.0,0.0,84,0.00,,,0.00,WUHU216HW,2013-08-07 12:51:00,
2013-08-07 05:56:00,54.0,49.2,29.66,North,0,0.0,0.0,84,0.00,,,0.00,WUHU216HW,2013-08-07 12:56:00,
2013-08-07 06:01:00,54.0,49.2,29.66,North,0,0.0,0.0,84,0.00,,,0.00,WUHU216HW,2013-08-07 13:01:00,
2013-08-07 06:06:00,53.8,49.7,29.67,North,0,0.0,0.0,86,0.00,,,0.00,WUHU216HW,2013-08-07 13:06:00,
2013-08-07 06:11:00,53.8,49.4,29.66,North,0,0.0,0.0,85,0.00,,,0.00,WUHU216HW,2013-08-07 13:11:00,
2013-08-07 06:16:00,53.6,49.2,29.66,North,0,0.0,0.0,85,0.00,,,0.00,WUHU216HW,2013-08-07 13:16:00,
2013-08-07 06:21:00,53.8,49.7,29.67,North,0,0.0,0.0,86,0.00,,,0.00,WUHU216HW,2013-08-07 13:21:00,
2013-08-07 06:26:00,54.0,49.9,29.66,North,0,0.0,0.0,86,0.00,,,0.00,WUHU216HW,2013-08-07 13:26:00,
2013-08-07 06:31:00,54.0,50.5,29.66,North,0,0.0,0.0,88,0.00,,,0.00,WUHU216HW,2013-08-07 13:31:00,
2013-08-07 06:36:00,54.2,50.4,29.66,North,0,0.0,0.0,87,0.00,,,0.00,WUHU216HW,2013-08-07 13:36:00,
2013-08-07 06:41:00,54.4,50.9,29.67,North,0,0.0,0.0,88,0.00,,,0.00,WUHU216HW,2013-08-07 13:41:00,
2013-08-07 06:46:00,54.5,51.0,29.67,North,0,0.0,0.0,88,0.00,,,0.00,WUHU216HW,2013-08-07 13:46:00,
2013-08-07 06:51:00,54.9,51.4,29.67,North,0,0.0,0.0,88,0.00,,,0.00,WUHU216HW,2013-08-07 13:51:00,
2013-08-07 06:56:00,55.1,51.2,29.67,North,0,0.0,0.0,87,0.00,,,0.00,WUHU216HW,2013-08-07 13:56:00,
2013-08-07 07:01:00,55.4,51.6,29.67,North,0,0.0,0.0,87,0.00,,,0.00,WUHU216HW,2013-08-07 14:01:00,
2013-08-07 07:06:00,55.8,51.7,29.67,North,0,0.0,0.0,86,0.00,,,0.00,WUHU216HW,2013-08-07 14:06:00,
2013-08-07 07:11:00,56.5,52.4,29.68,North,0,0.0,0.0,86,0.00,,,0.00,WUHU216HW,2013-08-07 14:11:00,
2013-08-07 07:16:00,56.9,52.4,29.68,North,0,0.0,0.0,85,0.00,,,0.00,WUHU216HW,2013-08-07 14:16:00,
2013-08-07 07:21:00,57.1,52.2,29.68,North,0,0.0,0.0,84,0.00,,,0.00,WUHU216HW,2013-08-07 14:21:00,
2013-08-07 07:26:00,57.6,53.1,29.68,North,0,0.0,0.0,85,0.00,,,0.00,WUHU216HW,2013-08-07 14:26:00,
2013-08-07 07:31:00,58.0,53.5,29.68,North,0,0.0,0.0,85,0.00,,,0.00,WUHU216HW,2013-08-07 14:31:00,
2013-08-07 07:36:00,58.5,53.6,29.68,North,0,0.0,0.0,84,0.00,,,0.00,WUHU216HW,2013-08-07 14:36:00,
2013-08-07 07:41:00,58.7,53.6,29.68,North,0,0.0,0.0,83,0.00,,,0.00,WUHU216HW,2013-08-07 14:41:00,
2013-08-07 07:46:00,59.0,53.9,29.69,North,0,0.0,0.0,83,0.00,,,0.00,WUHU216HW,2013-08-07 14:46:00,
2013-08-07 07:51:00,59.4,53.9,29.69,North,0,0.0,0.0,82,0.00,,,0.00,WUHU216HW,2013-08-07 14:51:00,
2013-08-07 07:56:00,60.1,54.6,29.69,North,0,0.0,0.0,82,0.00,,,0.00,WUHU216HW,2013-08-07 14:56:00,
2013-08-07 08:01:00,60.7,54.9,29.68,North,0,0.0,0.0,81,0.00,,,0.00,WUHU216HW,2013-08-07 15:01:00,
2013-08-07 08:06:00,61.0,54.9,29.69,North,0,0.0,0.0,80,0.00,,,0.00,WUHU216HW,2013-08-07 15:06:00,
2013-08-07 08:11:00,61.0,54.6,29.69,North,0,0.0,0.0,79,0.00,,,0.00,WUHU216HW,2013-08-07 15:11:00,
2013-08-07 08:16:00,61.2,54.7,29.69,North,0,0.0,0.0,79,0.00,,,0.00,WUHU216HW,2013-08-07 15:16:00,
2013-08-07 08:21:00,61.4,54.8,29.69,North,0,0.0,0.0,79,0.00,,,0.00,WUHU216HW,2013-08-07 15:21:00,
2013-08-07 08:26:00,61.4,54.8,29.69,North,0,0.0,0.0,79,0.00,,,0.00,WUHU216HW,2013-08-07 15:26:00,
2013-08-07 08:31:00,61.6,55.0,29.69,North,0,0.0,0.0,79,0.00,,,0.00,WUHU216HW,2013-08-07 15:31:00,
2013-08-07 08:36:00,62.1,55.5,29.69,North,0,0.0,0.0,79,0.00,,,0.00,WUHU216HW,2013-08-07 15:36:00,
2013-08-07 08:41:00,62.5,55.4,29.69,North,0,0.0,0.0,78,0.00,,,0.00,WUHU216HW,2013-08-07 15:41:00,
2013-08-07 08:46:00,63.0,56.0,29.69,North,0,0.0,0.0,78,0.00,,,0.00,WUHU216HW,2013-08-07 15:46:00,
2013-08-07 08:51:00,63.5,56.2,29.69,North,0,0.0,0.0,77,0.00,,,0.00,WUHU216HW,2013-08-07 15:51:00,
2013-08-07 08:56:00,64.1,56.7,29.70,North,0,0.0,0.0,77,0.00,,,0.00,WUHU216HW,2013-08-07 15:56:00,
2013-08-07 09:01:00,64.6,56.9,29.70,North,0,0.0,0.0,76,0.00,,,0.00,WUHU216HW,2013-08-07 16:01:00,
2013-08-07 09:06:00,65.2,57.1,29.70,North,0,0.0,0.0,75,0.00,,,0.00,WUHU216HW,2013-08-07 16:06:00,
2013-08-07 09:11:00,65.9,57.7,29.70,North,0,0.0,0.0,75,0.00,,,0.00,WUHU216HW,2013-08-07 16:11:00,
2013-08-07 09:16:00,66.4,57.9,29.70,North,0,0.0,0.0,74,0.00,,,0.00,WUHU216HW,2013-08-07 16:16:00,
2013-08-07 09:21:00,67.0,58.4,29.70,North,0,0.0,0.0,74,0.00,,,0.00,WUHU216HW,2013-08-07 16:21:00,
2013-08-07 09:26:00,67.5,58.6,29.70,North,0,0.0,0.0,73,0.00,,,0.00,WUHU216HW,2013-08-07 16:26:00,
2013-08-07 09:31:00,68.0,58.7,29.70,North,0,0.0,0.0,72,0.00,,,0.00,WUHU216HW,2013-08-07 16:31:00,
2013-08-07 09:36:00,68.4,59.0,29.70,North,0,0.0,0.0,72,0.00,,,0.00,WUHU216HW,2013-08-07 16:36:00,
2013-08-07 09:41:00,68.8,58.1,29.70,North,0,0.0,0.0,69,0.00,,,0.00,WUHU216HW,2013-08-07 16:41:00,
2013-08-07 09:46:00,68.6,58.4,29.70,North,0,0.0,0.0,70,0.00,,,0.00,WUHU216HW,2013-08-07 16:46:00,
2013-08-07 09:51:00,68.8,58.1,29.70,North,0,0.0,0.0,69,0.00,,,0.00,WUHU216HW,2013-08-07 16:51:00,
2013-08-07 09:56:00,69.5,59.2,29.70,North,0,0.0,0.0,70,0.00,,,0.00,WUHU216HW,2013-08-07 16:56:00,
2013-08-07 10:01:00,69.7,58.6,29.70,North,0,0.0,0.0,68,0.00,,,0.00,WUHU216HW,2013-08-07 17:01:00,
2013-08-07 10:06:00,69.8,59.1,29.70,North,0,0.0,0.0,69,0.00,,,0.00,WUHU216HW,2013-08-07 17:06:00,
2013-08-07 10:11:00,70.4,59.3,29.70,North,0,0.0,0.0,68,0.00,,,0.00,WUHU216HW,2013-08-07 17:11:00,
2013-08-07 10:16:00,70.9,59.9,29.70,North,0,0.0,0.0,68,0.00,,,0.00,WUHU216HW,2013-08-07 17:16:00,
2013-08-07 10:21:00,70.9,59.0,29.70,North,0,0.0,0.0,66,0.00,,,0.00,WUHU216HW,2013-08-07 17:21:00,
2013-08-07 10:26:00,71.3,59.8,29.70,North,0,0.0,0.0,67,0.00,,,0.00,WUHU216HW,2013-08-07 17:26:00,
2013-08-07 10:31:00,72.0,60.4,29.70,North,0,0.0,0.0,67,0.00,,,0.00,WUHU216HW,2013-08-07 17:31:00,
2013-08-07 10:36:00,72.4,60.0,29.70,North,0,0.0,0.0,65,0.00,,,0.00,WUHU216HW,2013-08-07 17:36:00,
2013-08-07 10:41:00,72.2,59.3,29.70,North,0,0.0,0.0,64,0.00,,,0.00,WUHU216HW,2013-08-07 17:41:00,
2013-08-07 10:46:00,72.7,60.2,29.70,North,0,0.0,0.0,65,0.00,,,0.00,WUHU216HW,2013-08-07 17:46:00,
2013-08-07 10:51:00,73.1,58.8,29.70,North,0,0.0,0.0,61,0.00,,,0.00,WUHU216HW,2013-08-07 17:51:00,
2013-08-07 10:56:00,73.3,58.5,29.70,North,0,0.0,0.0,60,0.00,,,0.00,WUHU216HW,2013-08-07 17:56:00,
2013-08-07 11:01:00,73.1,58.8,29.70,North,0,0.0,0.0,61,0.00,,,0.00,WUHU216HW,2013-08-07 18:01:00,
2013-08-07 11:06:00,73.8,59.5,29.70,North,0,0.0,0.0,61,0.00,,,0.00,WUHU216HW,2013-08-07 18:06:00,
2013-08-07 11:11:00,74.5,60.7,29.70,North,0,0.0,0.0,62,0.00,,,0.00,WUHU216HW,2013-08-07 18:11:00,
2013-08-07 11:16:00,75.2,60.9,29.70,North,0,0.0,0.0,61,0.00,,,0.00,WUHU216HW,2013-08-07 18:16:00,
2013-08-07 11:21:00,75.8,59.9,29.70,North,0,0.0,0.0,58,0.00,,,0.00,WUHU216HW,2013-08-07 18:21:00,
2013-08-07 11:26:00,76.3,60.9,29.70,North,0,0.0,0.0,59,0.00,,,0.00,WUHU216HW,2013-08-07 18:26:00,
2013-08-07 11:31:00,76.7,60.8,29.70,North,0,0.0,0.0,58,0.00,,,0.00,WUHU216HW,2013-08-07 18:31:00,
2013-08-07 11:36:00,76.7,60.8,29.70,North,0,0.0,0.0,58,0.00,,,0.00,WUHU216HW,2013-08-07 18:36:00,
2013-08-07 11:41:00,76.9,60.4,29.70,North,0,0.0,0.0,57,0.00,,,0.00,WUHU216HW,2013-08-07 18:41:00,
2013-08-07 11:46:00,77.0,60.6,29.70,North,0,0.0,0.0,57,0.00,,,0.00,WUHU216HW,2013-08-07 18:46:00,
2013-08-07 11:51:00,77.2,60.3,29.70,North,0,0.0,0.0,56,0.00,,,0.00,WUHU216HW,2013-08-07 18:51:00,
2013-08-07 11:56:00,77.0,59.0,29.70,North,0,0.0,0.0,54,0.00,,,0.00,WUHU216HW,2013-08-07 18:56:00,
2013-08-07 12:01:00,76.9,59.0,29.70,North,0,0.0,0.0,54,0.00,,,0.00,WUHU216HW,2013-08-07 19:01:00,
2013-08-07 12:06:00,77.0,60.1,29.70,North,0,0.0,0.0,56,0.00,,,0.00,WUHU216HW,2013-08-07 19:06:00,
2013-08-07 12:07:00,77.0,60.1,29.70,North,0,0.0,0.0,56,0.00,,,0.00,WUHU216HW,2013-08-07 19:07:00,
2013-08-07 12:12:00,77.9,60.9,29.70,North,0,0.0,0.0,56,0.00,,,0.00,WUHU216HW,2013-08-07 19:12:00,
2013-08-07 12:17:00,78.7,61.1,29.70,North,0,0.0,0.0,55,0.00,,,0.00,WUHU216HW,2013-08-07 19:17:00,
2013-08-07 12:22:00,79.4,61.3,29.70,North,0,0.0,0.0,54,0.00,,,0.00,WUHU216HW,2013-08-07 19:22:00,
2013-08-07 12:27:00,79.7,60.6,29.70,North,0,0.0,0.0,52,0.00,,,0.00,WUHU216HW,2013-08-07 19:27:00,
2013-08-07 12:32:00,79.9,60.7,29.70,North,0,0.0,0.0,52,0.00,,,0.00,WUHU216HW,2013-08-07 19:32:00,
2013-08-07 12:36:00,80.3,61.0,29.70,North,0,0.0,0.0,52,0.00,,,0.00,WUHU216HW,2013-08-07 19:36:00,
2013-08-07 12:42:00,79.9,59.0,29.70,North,0,0.0,0.0,49,0.00,,,0.00,WUHU216HW,2013-08-07 19:42:00,
2013-08-07 12:46:00,79.9,57.8,29.70,North,0,0.0,0.0,47,0.00,,,0.00,WUHU216HW,2013-08-07 19:46:00,
2013-08-07 12:51:00,79.7,57.1,29.69,North,0,0.0,0.0,46,0.00,,,0.00,WUHU216HW,2013-08-07 19:51:00,
2013-08-07 12:56:00,79.6,56.9,29.69,North,0,0.0,0.0,46,0.00,,,0.00,WUHU216HW,2013-08-07 19:56:00,
2013-08-07 13:01:00,79.9,58.4,29.69,North,0,0.0,0.0,48,0.00,,,0.00,WUHU216HW,2013-08-07 20:01:00,
2013-08-07 13:06:00,81.0,60.0,29.69,North,0,0.0,0.0,49,0.00,,,0.00,WUHU216HW,2013-08-07 20:06:00,
2013-08-07 13:11:00,81.7,60.0,29.69,North,0,0.0,0.0,48,0.00,,,0.00,WUHU216HW,2013-08-07 20:11:00,
2013-08-07 13:16:00,82.1,59.8,29.68,North,0,0.0,0.0,47,0.00,,,0.00,WUHU216HW,2013-08-07 20:16:00,
2013-08-07 13:21:00,82.1,59.8,29.69,North,0,0.0,0.0,47,0.00,,,0.00,WUHU216HW,2013-08-07 20:21:00,
2013-08-07 13:26:00,82.1,59.8,29.69,North,0,0.0,0.0,47,0.00,,,0.00,WUHU216HW,2013-08-07 20:26:00,
2013-08-07 13:31:00,82.6,60.3,29.68,North,0,0.0,0.0,47,0.00,,,0.00,WUHU216HW,2013-08-07 20:31:00,
2013-08-07 13:36:00,83.0,60.0,29.68,North,0,0.0,0.0,46,0.00,,,0.00,WUHU216HW,2013-08-07 20:36:00,
2013-08-07 13:41:00,83.5,60.5,29.68,North,0,0.0,0.0,46,0.00,,,0.00,WUHU216HW,2013-08-07 20:41:00,
2013-08-07 13:46:00,83.7,60.0,29.68,North,0,0.0,0.0,45,0.00,,,0.00,WUHU216HW,2013-08-07 20:46:00,
2013-08-07 13:51:00,83.9,59.0,29.68,North,0,0.0,0.0,43,0.00,,,0.00,WUHU216HW,2013-08-07 20:51:00,
2013-08-07 13:56:00,83.5,58.7,29.68,North,0,0.0,0.0,43,0.00,,,0.00,WUHU216HW,2013-08-07 20:56:00,
2013-08-07 14:01:00,83.3,59.1,29.68,North,0,0.0,0.0,44,0.00,,,0.00,WUHU216HW,2013-08-07 21:01:00,
2013-08-07 14:06:00,83.2,57.7,29.68,North,0,0.0,0.0,42,0.00,,,0.00,WUHU216HW,2013-08-07 21:06:00,
2013-08-07 14:11:00,83.2,59.0,29.68,North,0,0.0,0.0,44,0.00,,,0.00,WUHU216HW,2013-08-07 21:11:00,
2013-08-07 14:16:00,83.5,59.9,29.68,North,0,0.0,0.0,45,0.00,,,0.00,WUHU216HW,2013-08-07 21:16:00,
2013-08-07 14:21:00,83.9,59.0,29.67,North,0,0.0,0.0,43,0.00,,,0.00,WUHU216HW,2013-08-07 21:21:00,
2013-08-07 14:26:00,83.9,60.2,29.67,North,0,0.0,0.0,45,0.00,,,0.00,WUHU216HW,2013-08-07 21:26:00,
2013-08-07 14:31:00,84.2,60.6,29.67,North,0,0.0,0.0,45,0.00,,,0.00,WUHU216HW,2013-08-07 21:31:00,
2013-08-07 14:36:00,84.2,59.9,29.67,North,0,0.0,0.0,44,0.00,,,0.00,WUHU216HW,2013-08-07 21:36:00,
2013-08-07 14:41:00,84.6,60.9,29.67,North,0,0.0,0.0,45,0.00,,,0.00,WUHU216HW,2013-08-07 21:41:00,
2013-08-07 14:46:00,84.6,60.3,29.67,North,0,0.0,0.0,44,0.00,,,0.00,WUHU216HW,2013-08-07 21:46:00,
2013-08-07 14:51:00,84.8,60.4,29.67,North,0,0.0,0.0,44,0.00,,,0.00,WUHU216HW,2013-08-07 21:51:00,
2013-08-07 14:56:00,85.0,61.2,29.67,North,0,0.0,0.0,45,0.00,,,0.00,WUHU216HW,2013-08-07 21:56:00,
2013-08-07 15:01:00,85.0,60.6,29.67,North,0,0.0,0.0,44,0.00,,,0.00,WUHU216HW,2013-08-07 22:01:00,
2013-08-07 15:06:00,84.8,61.0,29.67,North,0,0.0,0.0,45,0.00,,,0.00,WUHU216HW,2013-08-07 22:06:00,
2013-08-07 15:11:00,84.2,61.2,29.67,North,0,0.0,0.0,46,0.00,,,0.00,WUHU216HW,2013-08-07 22:11:00,
2013-08-07 15:17:00,84.1,61.0,29.67,North,0,0.0,0.0,46,0.00,,,0.00,WUHU216HW,2013-08-07 22:17:00,
2013-08-07 15:21:00,84.1,61.0,29.67,North,0,0.0,0.0,46,0.00,,,0.00,WUHU216HW,2013-08-07 22:21:00,
2013-08-07 15:26:00,83.5,60.5,29.67,North,0,0.0,0.0,46,0.00,,,0.00,WUHU216HW,2013-08-07 22:26:00,
2013-08-07 15:31:00,83.2,60.8,29.67,North,0,0.0,0.0,47,0.00,,,0.00,WUHU216HW,2013-08-07 22:31:00,
2013-08-07 15:36:00,83.2,60.8,29.67,North,0,0.0,0.0,47,0.00,,,0.00,WUHU216HW,2013-08-07 22:36:00,
2013-08-07 15:41:00,83.3,60.9,29.67,North,0,0.0,0.0,47,0.00,,,0.00,WUHU216HW,2013-08-07 22:41:00,
2013-08-07 15:42:00,83.3,60.9,29.67,North,0,0.0,0.0,47,0.00,,,0.00,WUHU216HW,2013-08-07 22:42:00,
2013-08-07 15:47:00,83.2,60.8,29.67,North,0,0.0,0.0,47,0.00,,,0.00,WUHU216HW,2013-08-07 22:47:00,
2013-08-07 15:52:00,83.2,60.8,29.66,North,0,0.0,0.0,47,0.00,,,0.00,WUHU216HW,2013-08-07 22:52:00,
2013-08-07 15:57:00,83.2,61.4,29.66,North,0,0.0,0.0,48,0.00,,,0.00,WUHU216HW,2013-08-07 22:57:00,
2013-08-07 16:02:00,83.2,61.4,29.66,North,0,0.0,0.0,48,0.00,,,0.00,WUHU216HW,2013-08-07 23:02:00,
2013-08-07 16:07:00,83.2,61.4,29.66,North,0,0.0,0.0,48,0.00,,,0.00,WUHU216HW,2013-08-07 23:07:00,
2013-08-07 16:12:00,83.0,61.2,29.66,North,0,0.0,0.0,48,0.00,,,0.00,WUHU216HW,2013-08-07 23:12:00,
2013-08-07 16:17:00,82.8,61.7,29.65,North,0,0.0,0.0,49,0.00,,,0.00,WUHU216HW,2013-08-07 23:17:00,
2013-08-07 16:22:00,82.4,60.7,29.65,North,0,0.0,0.0,48,0.00,,,0.00,WUHU216HW,2013-08-07 23:22:00,
2013-08-07 16:23:00,82.4,60.7,29.65,North,0,0.0,0.0,48,0.00,,,0.00,WUHU216HW,2013-08-07 23:23:00,
2013-08-07 16:28:00,82.3,61.1,29.65,North,0,0.0,0.0,49,0.00,,,0.00,WUHU216HW,2013-08-07 23:28:00,
2013-08-07 16:33:00,82.6,58.4,29.65,North,0,0.0,0.0,44,0.00,,,0.00,WUHU216HW,2013-08-07 23:33:00,
2013-08-07 16:38:00,82.6,58.4,29.65,North,0,0.0,0.0,44,0.00,,,0.00,WUHU216HW,2013-08-07 23:38:00,
2013-08-07 16:43:00,82.8,59.2,29.65,North,0,0.0,0.0,45,0.00,,,0.00,WUHU216HW,2013-08-07 23:43:00,
2013-08-07 16:48:00,83.0,58.8,29.65,North,0,0.0,0.0,44,0.00,,,0.00,WUHU216HW,2013-08-07 23:48:00,
2013-08-07 16:53:00,83.0,59.4,29.65,North,0,0.0,0.0,45,0.00,,,0.00,WUHU216HW,2013-08-07 23:53:00,
2013-08-07 16:58:00,83.2,59.6,29.65,North,0,0.0,0.0,45,0.00,,,0.00,WUHU216HW,2013-08-07 23:58:00,
2013-08-07 17:03:00,83.2,59.6,29.65,North,0,0.0,0.0,45,0.00,,,0.00,WUHU216HW,2013-08-08 00:03:00,
2013-08-07 17:08:00,83.2,60.1,29.65,North,0,0.0,0.0,46,0.00,,,0.00,WUHU216HW,2013-08-08 00:08:00,
2013-08-07 17:13:00,82.8,59.9,29.65,North,0,0.0,0.0,46,0.00,,,0.00,WUHU216HW,2013-08-08 00:13:00,
2013-08-07 17:18:00,82.6,59.1,29.65,North,0,0.0,0.0,45,0.00,,,0.00,WUHU216HW,2013-08-08 00:18:00,
2013-08-07 17:23:00,82.8,59.2,29.65,North,0,0.0,0.0,45,0.00,,,0.00,WUHU216HW,2013-08-08 00:23:00,
2013-08-07 17:28:00,82.6,59.1,29.65,North,0,0.0,0.0,45,0.00,,,0.00,WUHU216HW,2013-08-08 00:28:00,
2013-08-07 17:33:00,82.8,59.2,29.65,North,0,0.0,0.0,45,0.00,,,0.00,WUHU216HW,2013-08-08 00:33:00,
2013-08-07 17:38:00,82.6,58.4,29.65,North,0,0.0,0.0,44,0.00,,,0.00,WUHU216HW,2013-08-08 00:38:00,
2013-08-07 17:43:00,82.4,58.2,29.65,North,0,0.0,0.0,44,0.00,,,0.00,WUHU216HW,2013-08-08 00:43:00,
2013-08-07 17:48:00,82.1,58.5,29.65,North,0,0.0,0.0,45,0.00,,,0.00,WUHU216HW,2013-08-08 00:48:00,
2013-08-07 17:53:00,81.9,59.0,29.65,North,0,0.0,0.0,46,0.00,,,0.00,WUHU216HW,2013-08-08 00:53:00,
2013-08-07 17:58:00,81.9,59.0,29.65,North,0,0.0,0.0,46,0.00,,,0.00,WUHU216HW,2013-08-08 00:58:00,
2013-08-07 18:03:00,81.5,58.7,29.65,North,0,0.0,0.0,46,0.00,,,0.00,WUHU216HW,2013-08-08 01:03:00,
2013-08-07 18:08:00,81.4,59.1,29.65,North,0,0.0,0.0,47,0.00,,,0.00,WUHU216HW,2013-08-08 01:08:00,
2013-08-07 18:13:00,81.2,59.0,29.65,North,0,0.0,0.0,47,0.00,,,0.00,WUHU216HW,2013-08-08 01:13:00,
2013-08-07 18:18:00,81.0,58.8,29.65,North,0,0.0,0.0,47,0.00,,,0.00,WUHU216HW,2013-08-08 01:18:00,
2013-08-07 18:23:00,80.8,58.1,29.64,North,0,0.0,0.0,46,0.00,,,0.00,WUHU216HW,2013-08-08 01:23:00,
2013-08-07 18:28:00,80.8,58.1,29.65,North,0,0.0,0.0,46,0.00,,,0.00,WUHU216HW,2013-08-08 01:28:00,
2013-08-07 18:33:00,80.6,57.9,29.65,North,0,0.0,0.0,46,0.00,,,0.00,WUHU216HW,2013-08-08 01:33:00,
2013-08-07 18:38:00,80.5,57.7,29.65,North,0,0.0,0.0,46,0.00,,,0.00,WUHU216HW,2013-08-08 01:38:00,
2013-08-07 18:43:00,80.5,59.0,29.65,North,0,0.0,0.0,48,0.00,,,0.00,WUHU216HW,2013-08-08 01:43:00,
2013-08-07 18:48:00,80.3,59.4,29.65,North,0,0.0,0.0,49,0.00,,,0.00,WUHU216HW,2013-08-08 01:48:00,
2013-08-07 18:53:00,80.1,59.9,29.65,North,0,0.0,0.0,50,0.00,,,0.00,WUHU216HW,2013-08-08 01:53:00,
2013-08-07 18:58:00,79.9,60.2,29.65,North,0,0.0,0.0,51,0.00,,,0.00,WUHU216HW,2013-08-08 01:58:00,
2013-08-07 19:03:00,79.6,60.4,29.65,North,0,0.0,0.0,52,0.00,,,0.00,WUHU216HW,2013-08-08 02:03:00,
2013-08-07 19:08:00,79.2,60.0,29.65,North,0,0.0,0.0,52,0.00,,,0.00,WUHU216HW,2013-08-08 02:08:00,
2013-08-07 19:13:00,78.7,60.1,29.65,North,0,0.0,0.0,53,0.00,,,0.00,WUHU216HW,2013-08-08 02:13:00,
2013-08-07 19:18:00,78.1,59.6,29.65,North,0,0.0,0.0,53,0.00,,,0.00,WUHU216HW,2013-08-08 02:18:00,
2013-08-07 19:23:00,77.8,59.8,29.65,North,0,0.0,0.0,54,0.00,,,0.00,WUHU216HW,2013-08-08 02:23:00,
2013-08-07 19:28:00,77.4,59.4,29.65,North,0,0.0,0.0,54,0.00,,,0.00,WUHU216HW,2013-08-08 02:28:00,
2013-08-07 19:33:00,77.0,59.6,29.65,North,0,0.0,0.0,55,0.00,,,0.00,WUHU216HW,2013-08-08 02:33:00,
2013-08-07 19:38:00,76.7,59.2,29.65,North,0,0.0,0.0,55,0.00,,,0.00,WUHU216HW,2013-08-08 02:38:00,
2013-08-07 19:43:00,76.3,59.4,29.65,North,0,0.0,0.0,56,0.00,,,0.00,WUHU216HW,2013-08-08 02:43:00,
2013-08-07 19:48:00,76.0,59.1,29.66,North,0,0.0,0.0,56,0.00,,,0.00,WUHU216HW,2013-08-08 02:48:00,
2013-08-07 19:53:00,75.8,59.5,29.66,North,0,0.0,0.0,57,0.00,,,0.00,WUHU216HW,2013-08-08 02:53:00,
2013-08-07 19:58:00,75.2,59.0,29.66,North,0,0.0,0.0,57,0.00,,,0.00,WUHU216HW,2013-08-08 02:58:00,
2013-08-07 20:03:00,74.9,59.1,29.66,North,0,0.0,0.0,58,0.00,,,0.00,WUHU216HW,2013-08-08 03:03:00,
2013-08-07 20:08:00,74.5,59.2,29.67,North,0,0.0,0.0,59,0.00,,,0.00,WUHU216HW,2013-08-08 03:08:00,
2013-08-07 20:13:00,74.0,58.7,29.67,North,0,0.0,0.0,59,0.00,,,0.00,WUHU216HW,2013-08-08 03:13:00,
2013-08-07 20:18:00,73.6,57.9,29.66,North,0,0.0,0.0,58,0.00,,,0.00,WUHU216HW,2013-08-08 03:18:00,
2013-08-07 20:23:00,73.1,57.9,29.67,North,0,0.0,0.0,59,0.00,,,0.00,WUHU216HW,2013-08-08 03:23:00,
2013-08-07 20:28:00,72.7,57.5,29.67,North,0,0.0,0.0,59,0.00,,,0.00,WUHU216HW,2013-08-08 03:28:00,
2013-08-07 20:33:00,72.4,57.3,29.68,North,0,0.0,0.0,59,0.00,,,0.00,WUHU216HW,2013-08-08 03:33:00,
2013-08-07 20:38:00,72.0,56.9,29.68,North,0,0.0,0.0,59,0.00,,,0.00,WUHU216HW,2013-08-08 03:38:00,
2013-08-07 20:43:00,71.6,57.1,29.68,North,0,0.0,0.0,60,0.00,,,0.00,WUHU216HW,2013-08-08 03:43:00,
2013-08-07 20:48:00,71.3,56.7,29.68,North,0,0.0,0.0,60,0.00,,,0.00,WUHU216HW,2013-08-08 03:48:00,
2013-08-07 20:53:00,70.9,56.4,29.68,North,0,0.0,0.0,60,0.00,,,0.00,WUHU216HW,2013-08-08 03:53:00,
2013-08-07 20:58:00,70.4,56.3,29.68,North,0,0.0,0.0,61,0.00,,,0.00,WUHU216HW,2013-08-08 03:58:00,
2013-08-07 21:01:00,70.2,56.2,29.68,North,0,0.0,0.0,61,0.00,,,0.00,WUHU216HW,2013-08-08 04:01:00,
2013-08-07 21:06:00,69.7,56.1,29.68,North,0,0.0,0.0,62,0.00,,,0.00,WUHU216HW,2013-08-08 04:06:00,
2013-08-07 21:11:00,69.5,55.9,29.68,North,0,0.0,0.0,62,0.00,,,0.00,WUHU216HW,2013-08-08 04:11:00,
2013-08-07 21:16:00,69.1,56.4,29.68,North,0,0.0,0.0,64,0.00,,,0.00,WUHU216HW,2013-08-08 04:16:00,
2013-08-07 21:21:00,68.6,56.4,29.68,North,0,0.0,0.0,65,0.00,,,0.00,WUHU216HW,2013-08-08 04:21:00,
2013-08-07 21:26:00,68.2,56.0,29.68,North,0,0.0,0.0,65,0.00,,,0.00,WUHU216HW,2013-08-08 04:26:00,
2013-08-07 21:31:00,68.0,55.8,29.68,North,0,0.0,0.0,65,0.00,,,0.00,WUHU216HW,2013-08-08 04:31:00,
2013-08-07 21:36:00,67.9,56.1,29.68,North,0,0.0,0.0,66,0.00,,,0.00,WUHU216HW,2013-08-08 04:36:00,
2013-08-07 21:41:00,67.5,56.2,29.68,North,0,0.0,0.0,67,0.00,,,0.00,WUHU216HW,2013-08-08 04:41:00,
2013-08-07 21:46:00,67.3,56.0,29.68,North,0,0.0,0.0,67,0.00,,,0.00,WUHU216HW,2013-08-08 04:46:00,
2013-08-07 21:51:00,67.0,56.1,29.69,North,0,0.0,0.0,68,0.00,,,0.00,WUHU216HW,2013-08-08 04:51:00,
2013-08-07 21:56:00,66.8,55.9,29.69,North,0,0.0,0.0,68,0.00,,,0.00,WUHU216HW,2013-08-08 04:56:00,
2013-08-07 22:01:00,66.6,55.7,29.69,North,0,0.0,0.0,68,0.00,,,0.00,WUHU216HW,2013-08-08 05:01:00,
2013-08-07 22:06:00,66.4,55.9,29.69,North,0,0.0,0.0,69,0.00,,,0.00,WUHU216HW,2013-08-08 05:06:00,
2013-08-07 22:11:00,66.2,55.7,29.69,North,0,0.0,0.0,69,0.00,,,0.00,WUHU216HW,2013-08-08 05:11:00,
2013-08-07 22:16:00,66.1,55.6,29.69,North,0,0.0,0.0,69,0.00,,,0.00,WUHU216HW,2013-08-08 05:16:00,
2013-08-07 22:21:00,65.9,55.8,29.69,North,0,0.0,0.0,70,0.00,,,0.00,WUHU216HW,2013-08-08 05:21:00,
2013-08-07 22:26:00,65.5,55.5,29.69,North,0,0.0,0.0,70,0.00,,,0.00,WUHU216HW,2013-08-08 05:26:00,
2013-08-07 22:31:00,65.5,55.5,29.69,North,0,0.0,0.0,70,0.00,,,0.00,WUHU216HW,2013-08-08 05:31:00,
2013-08-07 22:36:00,65.2,55.5,29.69,North,0,0.0,0.0,71,0.00,,,0.00,WUHU216HW,2013-08-08 05:36:00,
2013-08-07 22:41:00,65.0,55.4,29.69,North,0,0.0,0.0,71,0.00,,,0.00,WUHU216HW,2013-08-08 05:41:00,
2013-08-07 22:46:00,64.6,55.1,29.69,North,0,0.0,0.0,71,0.00,,,0.00,WUHU216HW,2013-08-08 05:46:00,
2013-08-07 22:51:00,64.4,55.3,29.69,North,0,0.0,0.0,72,0.00,,,0.00,WUHU216HW,2013-08-08 05:51:00,
2013-08-07 22:56:00,64.4,55.3,29.70,North,0,0.0,0.0,72,0.00,,,0.00,WUHU216HW,2013-08-08 05:56:00,
2013-08-07 23:01:00,64.3,55.1,29.69,North,0,0.0,0.0,72,0.00,,,0.00,WUHU216HW,2013-08-08 06:01:00,
2013-08-07 23:06:00,64.1,54.9,29.69,North,0,0.0,0.0,72,0.00,,,0.00,WUHU216HW,2013-08-08 06:06:00,
2013-08-07 23:11:00,63.9,54.7,29.69,North,0,0.0,0.0,72,0.00,,,0.00,WUHU216HW,2013-08-08 06:11:00,
2013-08-07 23:16:00,63.9,55.1,29.70,North,0,0.0,0.0,73,0.00,,,0.00,WUHU216HW,2013-08-08 06:16:00,
2013-08-07 23:21:00,63.7,55.3,29.69,North,0,0.0,0.0,74,0.00,,,0.00,WUHU216HW,2013-08-08 06:21:00,
2013-08-07 23:26:00,63.5,55.1,29.70,North,0,0.0,0.0,74,0.00,,,0.00,WUHU216HW,2013-08-08 06:26:00,
2013-08-07 23:31:00,63.4,54.9,29.70,North,0,0.0,0.0,74,0.00,,,0.00,WUHU216HW,2013-08-08 06:31:00,
2013-08-07 23:36:00,63.4,54.9,29.70,North,0,0.0,0.0,74,0.00,,,0.00,WUHU216HW,2013-08-08 06:36:00,
2013-08-07 23:41:00,63.4,54.9,29.69,North,0,0.0,0.0,74,0.00,,,0.00,WUHU216HW,2013-08-08 06:41:00,
2013-08-07 23:46:00,63.4,54.9,29.70,North,0,0.0,0.0,74,0.00,,,0.00,WUHU216HW,2013-08-08 06:46:00,
2013-08-07 23:51:00,63.2,54.7,29.70,North,0,0.0,0.0,74,0.00,,,0.00,WUHU216HW,2013-08-08 06:51:00,
2013-08-07 23:56:00,63.2,54.7,29.70,North,0,0.0,0.0,74,0.00,,,0.00,WUHU216HW,2013-08-08 06:56:00,